Simultaneous Nadir Overpasses (SNOs) Predictions

Prediction of SNOs between METOP-A and NOAA-19 Satellite Orbit:

Table of predicted SNOs for the next 14.0 days since TLE Epoch: 3/18/2016
Index Date (METOP-A) Time (METOP-A) Lat,Lon (METOP-A) SZA (METOP-A ) Date (NOAA-19) Time (NOAA-19) Lat,Lon (NOAA-19) SZA (NOAA-19 ) Distance(km) Time Diff (sec)
1 03/27/2016 10:34:58 -75.96,-158.94 106.98 03/27/2016 10:33:44 -75.98,-159.43 106.94 13.48 74
2 03/27/2016 11:25:39 75.88, 8.15 72.94 03/27/2016 11:24:44 75.86, 8.24 72.92 3.26 55
3 03/27/2016 12:16:21 -75.89, 175.51 107.07 03/27/2016 12:15:44 -75.88, 175.41 107.07 2.96 37
4 03/27/2016 13:07:01 75.86, -17.25 72.90 03/27/2016 13:06:46 75.85, -17.25 72.89 1.06 15
5 03/27/2016 13:57:44 -75.83, 149.96 107.16 03/27/2016 13:57:45 -75.83, 150.09 107.15 3.34 1
6 03/27/2016 14:48:23 75.85, -42.64 72.85 03/27/2016 14:48:48 75.85, -42.73 72.85 2.29 25
7 03/27/2016 15:39:06 -75.81, 124.57 107.20 03/27/2016 15:39:47 -75.82, 124.61 107.19 1.65 41
8 03/27/2016 16:29:45 75.83, -68.04 72.81 03/27/2016 16:30:49 75.80, -68.06 72.77 3.78 64
9 03/27/2016 17:20:33 -75.56, 98.43 107.47 03/27/2016 17:21:44 -75.59, 99.89 107.46 40.68 71




NCC Satellite Simultaneous Nadir Overpasses (SNOs) Prediction Service
